Wind_Speed
11 12 13 12 11 11 11 10 10 10 9 8 9 10 12 14 15 16 18 21 21 21 20 20 21 21 22 22 21 21 21 21 21 21 21 20 18 18 18 18 17 16
12 13 13 12 11 10 10 11 12 11 10 9 10 11 12 14 15 17 19 20 21 21 20 20 21 22 23 23 22 20 21 21 21 21 22 20 19 18 18 18 18 17
13 13 13 12 11 10 10 12 13 13 12 11 11 12 13 14 16 17 19 21 21 21 20 20 21 22 23 24 23 21 20 21 21 22 23 22 21 19 18 18 18 18
14 13 12 12 12 12 12 13 14 14 13 13 13 14 15 16 17 18 20 21 21 21 21 21 22 22 23 24 24 22 21 21 21 23 24 24 23 21 20 20 19 19
13 13 12 12 12 13 14 15 15 16 16 15 15 16 16 17 17 18 20 21 21 21 22 22 22 22 23 23 24 23 23 22 22 23 25 25 24 23 21 21 21 20
13 13 12 12 12 13 14 15 17 18 19 19 17 16 16 16 16 17 19 20 21 21 22 22 22 22 23 23 24 24 24 23 22 23 25 25 25 24 23 22 22 21
15 14 14 13 13 14 15 16 19 21 20 18 17 17 16 16 17 17 19 20 21 22 22 22 22 22 23 23 24 24 24 24 24 24 24 25 25 25 24 23 22 22
17 16 16 15 15 15 16 18 20 20 17 17 18 18 17 18 19 19 20 21 21 22 22 21 21 22 22 23 24 24 25 25 24 24 24 25 26 25 24 23 23 22
19 18 17 17 17 17 18 20 20 16 15 17 18 19 19 20 20 20 20 20 20 21 22 22 22 23 23 24 25 25 25 25 25 25 25 25 26 26 25 25 24 23
19 19 19 18 19 19 20 22 20 15 15 18 18 19 20 22 22 22 21 21 21 22 23 24 24 24 24 25 26 26 26 26 26 26 26 26 26 27 27 27 26 25
19 20 20 20 21 21 21 23 20 15 15 17 18 19 19 21 22 22 22 22 22 23 23 24 25 25 26 26 27 27 27 28 28 28 27 27 27 27 28 28 29 28
18 20 21 21 22 21 22 24 20 13 13 16 18 19 20 21 21 21 21 22 22 23 24 24 24 25 25 25 26 27 28 28 29 29 29 29 29 28 28 29 30 30
15 17 18 19 20 20 21 23 19 13 13 16 17 19 20 21 21 21 21 21 22 23 23 23 24 25 26 26 26 27 28 29 30 30 30 31 31 31 30 30 31 32
13 14 15 16 17 18 19 21 20 15 14 16 18 18 19 20 20 21 22 22 22 23 23 24 25 26 26 26 27 28 29 30 31 30 31 32 33 33 33 32 32 32
14 15 16 17 17 18 19 20 21 18 17 18 19 19 19 20 21 22 23 23 23 24 24 25 26 26 26 26 27 28 29 31 31 31 31 32 33 34 35 35 35 34
15 16 16 17 18 18 19 20 21 20 20 19 20 20 21 22 22 23 23 24 24 25 26 26 27 26 25 25 26 28 30 32 32 30 30 31 33 34 35 36 36 36
16 17 17 18 18 19 19 20 21 21 21 21 21 21 22 23 23 24 24 24 25 25 26 26 26 26 26 26 28 30 31 31 30 28 29 31 32 34 35 36 36 37
16 17 17 18 18 19 19 20 20 21 21 21 21 21 22 23 23 24 24 24 24 24 25 25 25 26 26 27 29 30 29 29 29 28 30 31 32 34 35 37 38 39
17 17 17 17 17 18 19 20 20 19 19 19 20 20 20 21 21 21 22 22 23 23 23 24 24 25 25 26 28 29 28 29 30 30 31 32 32 34 35 37 39 41
17 17 16 16 16 16 17 18 18 18 17 17 18 18 18 18 18 19 19 20 21 22 23 24 23 24 25 26 29 29 29 30 31 31 31 32 33 34 35 36 38 40
18 17 16 16 16 16 16 17 17 17 16 16 17 17 18 18 18 19 19 20 22 23 24 24 23 24 25 27 29 30 30 30 31 31 31 32 33 35 36 37 38 39
18 18 17 17 16 16 16 16 17 17 17 17 18 18 18 19 19 20 20 21 23 23 24 23 23 24 25 26 27 29 30 31 32 32 32 33 35 36 37 39 40 41
17 17 17 17 17 17 16 16 17 17 18 19 19 19 18 18 19 20 21 21 22 23 23 23 23 23 24 26 26 28 29 30 31 31 31 32 34 35 37 39 40 41
15 15 16 16 17 16 16 17 18 18 19 19 19 19 19 19 20 20 21 21 21 22 23 23 23 23 24 25 25 27 28 29 30 31 30 30 32 35 37 39 40 41
19 17 17 17 17 17 17 17 18 19 19 19 19 20 21 20 20 21 22 22 21 22 23 24 23 22 23 24 25 26 28 28 29 30 29 29 32 34 36 37 38 39
28 26 23 20 20 20 19 19 19 19 19 20 20 21 21 22 22 23 24 23 22 22 23 24 24 23 23 24 25 25 27 28 29 30 29 30 31 32 32 32 33 34
Wind_Direction
244 240 232 226 222 221 225 232 241 243 234 225 222 214 206 206 207 205 203 203 203 205 207 207 207 207 210 213 216 218 219 220 220 219 221 223 221 223 228 230 228 227
247 246 238 231 227 223 223 226 235 238 230 220 217 214 207 203 200 198 198 199 201 205 207 208 208 209 211 216 218 219 219 221 221 221 224 226 226 225 227 228 226 225
248 249 244 236 228 226 224 225 231 234 229 221 217 216 212 206 200 196 196 198 201 204 206 208 209 210 212 216 220 220 218 220 221 222 224 227 227 228 228 228 226 225
251 251 248 240 230 226 226 228 231 232 230 224 218 217 217 212 206 200 199 202 205 207 208 209 209 211 213 217 220 221 219 220 222 225 226 227 228 230 232 233 230 227
255 253 249 245 237 229 227 228 230 230 229 226 222 220 220 219 215 209 206 206 209 212 213 212 212 212 215 218 221 221 220 220 224 228 229 228 228 230 233 236 234 231
258 256 253 251 247 240 234 230 230 229 226 224 224 224 225 227 226 222 219 215 215 216 218 218 218 217 218 220 222 222 221 220 223 229 230 229 228 229 233 236 236 234
257 258 258 258 256 251 245 237 232 231 228 226 226 227 227 228 229 228 226 224 222 221 221 222 224 225 225 225 225 225 224 223 224 227 229 228 228 229 231 234 235 236
253 256 259 263 264 261 257 248 239 236 236 235 231 229 230 230 230 230 229 229 228 227 226 225 227 230 232 232 231 229 228 228 227 228 228 228 229 231 233 234 234 235
252 255 260 266 271 272 267 258 251 246 244 239 232 227 229 231 233 235 235 234 235 236 236 233 231 231 233 234 235 234 233 232 231 231 230 230 230 232 234 235 235 233
255 259 264 270 274 274 270 263 259 255 247 240 235 230 228 231 235 237 237 236 236 238 240 240 238 237 236 235 236 237 236 235 235 235 234 233 233 233 234 236 236 234
259 262 266 270 271 270 269 264 259 253 245 238 237 237 235 237 240 239 238 238 240 241 240 241 242 242 241 239 240 240 238 236 237 237 236 236 236 235 236 237 238 237
263 265 267 267 268 267 266 265 262 256 250 242 238 241 244 246 247 244 240 239 241 241 240 241 245 245 243 241 243 244 244 243 241 240 239 239 238 237 236 236 238 238
265 266 266 266 266 266 265 267 267 261 255 250 244 242 244 247 249 248 246 244 244 244 243 244 246 246 244 243 244 246 249 250 248 246 244 242 241 239 237 236 236 237
262 263 264 263 264 265 266 269 270 263 254 252 250 248 248 248 248 249 249 249 249 249 248 248 248 249 249 248 247 247 249 251 250 248 248 248 246 244 242 239 237 236
260 262 264 265 266 267 268 269 271 268 259 254 253 252 252 251 250 250 250 251 252 252 252 252 253 255 255 255 253 251 253 255 253 250 249 250 249 248 245 243 241 240
264 266 268 270 271 272 271 271 271 269 264 258 254 251 251 251 251 252 252 253 253 253 253 254 254 256 257 257 256 256 256 258 256 253 251 250 249 248 246 245 244 242
270 271 272 274 274 273 273 272 271 269 267 264 260 256 254 252 252 252 253 253 252 252 253 254 254 254 253 252 254 255 257 258 258 258 258 256 253 251 248 246 245 244
270 271 273 275 276 275 274 273 271 269 268 267 266 263 260 257 256 255 254 254 254 253 253 253 254 254 253 254 255 257 260 262 262 261 260 259 258 256 253 250 247 246
272 273 274 274 273 272 271 271 271 270 269 268 267 266 264 261 259 256 255 255 255 255 255 255 256 257 259 261 263 263 264 265 266 264 262 261 260 258 256 254 251 248
277 277 277 274 270 266 265 265 265 266 267 267 266 265 264 262 259 256 255 255 256 257 258 259 260 262 263 264 265 266 267 267 268 267 267 266 264 262 261 259 256 253
287 283 280 277 273 267 263 261 260 259 260 261 261 261 261 260 259 259 258 258 258 259 260 262 263 263 263 264 265 267 268 269 269 270 270 270 269 267 265 264 261 258
295 292 287 283 278 272 267 264 259 255 252 252 252 253 256 259 261 262 263 263 263 264 265 266 265 264 264 265 266 268 270 271 272 273 273 272 271 270 269 266 265 262
297 293 291 288 283 277 272 266 261 256 252 250 249 250 251 254 258 259 261 264 267 268 269 269 269 269 269 270 270 271 273 274 276 277 277 277 276 275 272 268 265 262
290 287 286 283 280 277 272 265 261 257 255 254 257 259 259 259 260 262 263 264 265 268 270 270 271 272 272 273 275 276 277 278 279 279 280 282 281 279 276 272 267 263
280 284 287 285 282 278 273 268 263 260 258 259 260 262 264 263 263 265 267 268 268 269 271 272 273 273 274 275 276 278 279 279 279 281 284 285 285 283 279 274 269 265
275 281 286 290 290 284 277 274 271 268 266 265 264 264 264 265 266 267 268 271 273 274 275 278 278 277 275 275 276 278 280 281 282 284 287 290 290 288 283 275 270 267
Height
3177 3178 3179 3179 3180 3180 3181 3182 3184 3185 3185 3186 3186 3186 3186 3187 3188 3189 3191 3192 3194 3195 3197 3198 3200 3201 3203 3204 3205 3207 3208 3209 3211 3212 3213 3214 3215 3217 3218 3219 3220 3221
3175 3176 3178 3179 3179 3179 3180 3181 3183 3184 3184 3185 3185 3185 3186 3186 3187 3188 3189 3191 3193 3194 3196 3197 3198 3200 3201 3202 3204 3205 3206 3208 3209 3211 3212 3213 3214 3215 3216 3218 3218 3219
3174 3175 3176 3178 3178 3179 3179 3180 3182 3183 3183 3184 3184 3185 3185 3185 3186 3187 3188 3190 3192 3193 3194 3195 3197 3198 3199 3201 3202 3203 3205 3206 3208 3209 3210 3211 3213 3214 3215 3216 3216 3217
3173 3174 3175 3176 3177 3177 3178 3179 3181 3182 3182 3182 3183 3183 3184 3184 3185 3186 3187 3188 3190 3191 3193 3194 3195 3196 3198 3199 3200 3201 3203 3204 3206 3207 3208 3209 3210 3212 3213 3214 3214 3215
3172 3173 3174 3175 3175 3176 3176 3177 3179 3180 3180 3181 3181 3182 3183 3183 3184 3185 3186 3187 3188 3190 3191 3192 3193 3194 3196 3197 3198 3199 3201 3202 3204 3204 3205 3207 3208 3210 3211 3212 3213 3213
3171 3171 3172 3173 3173 3174 3174 3175 3176 3177 3177 3178 3179 3181 3183 3184 3185 3186 3186 3187 3187 3188 3189 3191 3192 3193 3194 3195 3196 3197 3199 3200 3201 3202 3203 3205 3206 3207 3208 3209 3211 3212
3169 3170 3170 3171 3172 3172 3173 3173 3173 3172 3174 3177 3179 3180 3181 3182 3183 3184 3185 3186 3187 3187 3188 3189 3191 3192 3193 3193 3194 3195 3197 3198 3199 3200 3201 3202 3203 3205 3206 3207 3208 3210
3168 3169 3169 3169 3170 3170 3171 3170 3169 3171 3175 3177 3178 3179 3179 3180 3181 3182 3183 3184 3186 3187 3188 3189 3190 3191 3192 3193 3194 3195 3196 3196 3197 3197 3198 3199 3201 3202 3204 3205 3206 3207
3167 3168 3168 3168 3168 3168 3168 3166 3167 3172 3174 3174 3175 3177 3177 3178 3179 3180 3181 3183 3184 3186 3187 3188 3188 3189 3190 3191 3193 3194 3195 3195 3195 3195 3196 3197 3198 3199 3201 3202 3203 3204
3166 3166 3166 3167 3166 3166 3166 3163 3165 3171 3172 3172 3173 3174 3175 3176 3177 3178 3179 3180 3182 3183 3184 3185 3186 3187 3188 3189 3190 3191 3193 3193 3193 3193 3194 3194 3195 3196 3198 3199 3200 3201
3165 3165 3165 3165 3164 3164 3163 3160 3163 3169 3170 3169 3171 3172 3173 3174 3174 3175 3176 3177 3179 3180 3180 3181 3183 3184 3185 3186 3187 3188 3189 3190 3190 3191 3191 3191 3192 3193 3194 3195 3196 3197
3163 3163 3163 3163 3162 3162 3160 3157 3160 3166 3167 3167 3169 3169 3170 3171 3172 3173 3174 3174 3176 3176 3177 3179 3180 3180 3181 3182 3184 3185 3186 3187 3188 3188 3188 3189 3189 3190 3190 3191 3192 3194
3161 3161 3161 3161 3160 3160 3158 3155 3158 3163 3164 3164 3166 3167 3167 3169 3169 3170 3171 3172 3173 3174 3175 3176 3177 3177 3178 3180 3181 3182 3183 3184 3184 3184 3185 3185 3186 3186 3187 3187 3188 3190
3160 3159 3159 3159 3159 3159 3158 3155 3156 3160 3162 3162 3163 3164 3165 3166 3166 3167 3168 3169 3170 3171 3172 3173 3173 3174 3176 3177 3178 3179 3179 3179 3180 3181 3182 3182 3183 3183 3184 3184 3185 3186
3158 3158 3158 3158 3157 3157 3157 3155 3155 3157 3160 3160 3161 3161 3162 3162 3163 3164 3165 3166 3167 3168 3169 3169 3170 3171 3172 3173 3174 3174 3175 3176 3179 3180 3179 3179 3180 3180 3180 3181 3181 3182
3156 3156 3156 3156 3156 3156 3156 3155 3154 3155 3156 3158 3158 3159 3159 3160 3160 3161 3162 3163 3164 3164 3165 3165 3166 3167 3168 3169 3169 3169 3171 3174 3176 3176 3175 3175 3175 3175 3176 3177 3178 3178
3154 3154 3154 3154 3154 3154 3154 3154 3154 3153 3154 3154 3155 3156 3157 3157 3158 3158 3159 3159 3160 3161 3161 3162 3163 3164 3164 3165 3165 3165 3168 3171 3171 3171 3171 3171 3171 3171 3171 3172 3173 3174
3153 3153 3153 3152 3152 3152 3152 3152 3152 3152 3152 3152 3153 3153 3154 3154 3155 3156 3156 3156 3157 3158 3158 3159 3160 3160 3160 3161 3161 3162 3164 3166 3165 3166 3166 3166 3166 3166 3167 3167 3168 3168
3151 3151 3151 3151 3151 3150 3150 3150 3150 3150 3151 3151 3151 3151 3151 3152 3153 3153 3153 3154 3154 3155 3155 3156 3157 3157 3157 3157 3157 3157 3159 3160 3160 3160 3161 3161 3161 3161 3161 3162 3162 3163
3150 3150 3149 3149 3149 3149 3148 3148 3148 3148 3149 3149 3149 3149 3150 3150 3150 3151 3151 3151 3152 3152 3152 3153 3154 3154 3154 3153 3153 3153 3154 3154 3154 3155 3156 3156 3156 3156 3156 3156 3157 3157
3150 3149 3148 3148 3147 3147 3147 3147 3147 3147 3147 3147 3147 3147 3148 3148 3148 3149 3149 3149 3149 3149 3149 3150 3151 3151 3150 3150 3149 3149 3149 3149 3149 3150 3151 3151 3150 3151 3151 3151 3151 3152
3148 3148 3147 3147 3146 3146 3146 3145 3145 3145 3145 3145 3145 3146 3146 3146 3147 3147 3147 3147 3147 3147 3147 3147 3148 3147 3147 3146 3146 3145 3145 3145 3144 3144 3145 3145 3145 3145 3145 3145 3145 3145
3145 3145 3145 3145 3145 3144 3144 3144 3143 3143 3143 3143 3143 3144 3144 3144 3144 3144 3144 3144 3144 3144 3144 3144 3144 3144 3143 3142 3142 3141 3140 3140 3139 3139 3140 3140 3139 3138 3138 3138 3138 3138
3141 3141 3142 3142 3142 3142 3142 3142 3142 3141 3141 3141 3141 3141 3141 3141 3141 3141 3141 3141 3140 3140 3140 3140 3141 3141 3140 3139 3138 3137 3136 3136 3135 3134 3135 3134 3133 3132 3131 3130 3130 3130
3139 3140 3140 3140 3140 3140 3139 3139 3139 3139 3139 3139 3139 3138 3138 3138 3138 3138 3137 3137 3137 3136 3136 3136 3136 3137 3136 3135 3135 3134 3133 3132 3131 3130 3130 3129 3127 3125 3124 3123 3122 3122
3137 3139 3139 3140 3139 3138 3137 3136 3136 3136 3136 3136 3136 3136 3135 3136 3135 3135 3134 3134 3133 3133 3133 3133 3133 3133 3133 3132 3132 3131 3129 3128 3127 3126 3125 3124 3122 3119 3117 3116 3116 3116